Regional Weather Roundup
Issued by NWS

Home | Current Version | Previous Version | Text Only | Print | Product List | Glossary On
Versions: 1 2 3 4 5 6 7 8 9 10 11 12 13 14 15 16 17 18 19 20 21 22 23 24 25 26 27 28 29 30 31 32 33 34 35 36 37 38 39 40 41 42 43 44 45 46 47 48 49 50
000
ASUS43 KDTX 120401
RWRMI
MICHIGAN HOURLY REGIONAL WEATHER ROUNDUP
NATIONAL WEATHER SERVICE DETROIT/PONTIAC MI
1100 PM EST THU FEB 11 2016

NOTE: "FAIR" INDICATES FEW OR NO CLOUDS BELOW 12,000 FEET WITH NO
SIGNIFICANT WEATHER AND/OR OBSTRUCTION TO VISIBILITY.

MIZ047>049-052>055-059>063-066>070-074>076-081>083-120500-
SOUTHEAST LOWER MICHIGAN

CITY           SKY/WX    TMP DP  RH WIND       PRES   REMARKS
ADRIAN         CLEAR     13   5  70 W6        30.25S WCI   4
ALMA           MOCLDY    15   8  73 SW6       30.21F WCI   6
ANN ARBOR      CLEAR      3   1  91 SW3       30.22S
BAD AXE        CLOUDY    14   6  70 W7        30.17S WCI   4
CARO           MOCLDY     9   1  72 SW6       30.19S WCI  -1
DETROIT CITY   CLEAR     16   4  59 W9        30.23S WCI   4
DETROIT        PTCLDY    15   5  64 SW8       30.25S WCI   4
FLINT          CLEAR     13   1  59 SW6       30.21S WCI   4
GROSSE ILE     CLEAR     16   7  67 CALM      30.23S
HILLSDALE      CLEAR     14   5  69 W5        30.21S WCI   6
HOWELL         CLEAR     13   8  81 SW5       30.20S WCI   5

CITY           SKY/WX    TMP DP  RH WIND       PRES   REMARKS
JACKSON        CLEAR     13   7  77 W7        30.22S WCI   3
LAMBERTVILLE   CLEAR     15   7  70 SW5       30.25F WCI   8
LANSING        CLEAR     15   7  70 W7        30.22F WCI   5
LAPEER         FAIR       0  -3  85 SW3       30.20S
MASON          CLEAR     14  10  82 W3        30.21F
MONROE         CLEAR     15   6  68 SW7       30.24S WCI   5
MT. CLEMENS    CLEAR     13   4  65 SW6       30.20F WCI   4
PONTIAC        PTCLDY     9   2  73 W3        30.18F
PORT HOPE        N/A     15   6  67 W6        30.15S WCI   6
PORT HURON     PTCLDY     3   1  92 CALM      30.21F
TRI CITIES     CLEAR     15   4  61 W12       30.21S WCI   2
MIDLAND        FAIR      13   4  66 CALM      30.20S
TROY           CLEAR     15   5  62 SW5       30.23S WCI   8
SAGINAW HB     CLEAR     14   9  79 W10       30.21S WCI   1
$$
MIZ043>046-050>051-056>058-064>065-071>073-077>080-120500-
SOUTHWEST LOWER MICHIGAN

CITY           SKY/WX    TMP DP  RH WIND       PRES   REMARKS
BATTLE CREEK   CLEAR     11   5  77 SW7       30.23S WCI   0
BENTON HARBOR  CLOUDY    13   4  67 S5        30.26F WCI   5
BIG RAPIDS     PTCLDY     9   3  78 CALM      30.16S
COLDWATER      CLEAR     10   4  78 SW3       30.24S
FREMONT        FAIR      11   6  79 SW3       30.19S
HOLLAND        CLOUDY    15   7  70 CALM      30.23F
GRAND RAPIDS   MOCLDY    16   9  74 S8        30.22F WCI   5
IONIA          FAIR      14   8  75 SW6       30.20F WCI   5
KALAMAZOO      CLEAR     12   4  70 SW7       30.24F WCI   1
LUDINGTON      CLOUDY    21   8  57 W10G18    30.18S WCI  10
MARSHALL       CLEAR     13   8  79 SW5       30.22F WCI   5
MOUNT PLEASANT CLEAR     14   6  70 SW5       30.18F WCI   6
MUSKEGON       PTCLDY    20   4  50 W8        30.22F WCI  10
SOUTH HAVEN    PTCLDY    16   7  67 SW3       30.25S
$$
MIZ016>042-120500-
NORTHERN LOWER MICHIGAN

CITY           SKY/WX    TMP DP  RH WIND       PRES   REMARKS
ALPENA         CLOUDY    16   6  65 SW7       30.09F WCI   6
BEAVER ISLAND  CLOUDY    21  10  61 W18G24    30.05F WCI   6
BELLAIRE       CLOUDY    17  10  72 S8        30.12F WCI   7
CADILLAC       PTCLDY    10   5  81 SW6       30.09F WCI   0
CHARLEVOIX     CLOUDY    21  11  66 SW10G18   30.09F WCI  10
FRANKFORT      CLOUDY    22   9  58 W12G17    30.14F WCI  10
GAYLORD        CLOUDY    13   7  77 SW14      30.04F WCI  -2
GRAYLING       CLOUDY    12   5  73 SW5       30.10S WCI   4
HARBOR SPRINGS LGT SNOW  21  12  69 W10G24    30.05F WCI  10
HOUGHTON LAKE  CLOUDY    13   5  70 SW12      30.12F WCI  -1
MANISTEE       CLOUDY    21   5  49 W13       30.16S WCI   9
OSCODA         CLOUDY    16   5  64 SW12      30.13F WCI   2
PELLSTON       LGT SNOW  15   8  73 S5        30.06F WCI   8
ROGERS CITY    CLOUDY    14   9  81 SW6       30.08F WCI   5
TRAVERSE CITY  CLOUDY    16   7  67 S6        30.12F WCI   7
$$
MIZ007>008-015-120500-
EASTERN UPPER MICHIGAN

CITY           SKY/WX    TMP DP  RH WIND       PRES   REMARKS
KINROSS        CLOUDY    16   7  67 W14G20    30.00F WCI   1
MACKINAC ISLAN LGT SNOW  18  10  72 W13G20    30.03F WCI   4
NEWBERRY       CLOUDY    13   4  68 SW9       30.02F WCI   1
S. S. MARIE    CLOUDY    15   3  59 SW18      29.98F WCI  -2
$$
MIZ004>006-011>014-085-120500-
CENTRAL UPPER MICHIGAN

CITY           SKY/WX    TMP DP  RH WIND       PRES   REMARKS
MANISTIQUE     CLOUDY    14   7  75 W5        30.06S WCI   6
ESCANABA       CLOUDY    14   1  57 W6        30.09S WCI   5
MENOMINEE      CLOUDY    16  -4  41 W8        30.12F WCI   5
SAWYER-GWINN   CLOUDY    11   0  60 W12G20    30.01F WCI  -3
$$
MIZ001>003-009>011-084-120500-
WESTERN UPPER MICHIGAN

CITY           SKY/WX    TMP DP  RH WIND       PRES   REMARKS
IRON MOUNTAIN  CLOUDY    14  -4  44 W12       30.05F WCI   0
HOUGHTON       LGT SNOW  15   7  70 NW28      29.98F VSB 1   WCI  -5
COPPER HARBOR    N/A     18  10  71 N31G41    29.99S WCI  -2
IRONWOOD       CLOUDY    10   0  61 W14       30.07S WCI  -5
$$

ABBREVIATIONS USED IN REMARKS
   TC - TEMPERATURE IN CELSIUS
  WCI - WIND CHILL INDEX
   HX - HEAT INDEX
  VSB - VISIBILITY




USA.gov is the U.S. government's official web portal to all federal, state and local government web resources and services.